DLH3PP EDDM-EDDF

Flight info

Callsign DLH3PP
Flight time 0h 44m
Altitude 24000
Route GIVMI1N GIVMI Y101 ERNAS T161 DEBHI DEBHI1B
Aircraft A320/M-SDE2E3FGIJ1LORWXYZ/HB1

Departure

Time 2026-04-16 13:49
Airport Munich Airport (EDDM)

Arrival

Time 2026-04-16 14:33
Airport Frankfurt Main Airport (EDDF)
Time Latitude Longitude Altitude Speed Heading
2026-04-16 13:39 48.35353 11.79608 1485 ft 0 kts 353°
2026-04-16 13:42 48.35358 11.79607 1467 ft 3 kts 353°
2026-04-16 13:42 48.35388 11.79602 1480 ft 5 kts 354°
2026-04-16 13:42 48.35425 11.79596 1480 ft 6 kts 354°
2026-04-16 13:42 48.35468 11.79588 1485 ft 6 kts 352°
2026-04-16 13:43 48.35510 11.79580 1483 ft 7 kts 353°
2026-04-16 13:43 48.35575 11.79569 1485 ft 14 kts 353°
2026-04-16 13:43 48.35686 11.79549 1481 ft 18 kts 353°
2026-04-16 13:43 48.35816 11.79527 1480 ft 20 kts 353°
2026-04-16 13:44 48.35961 11.79501 1481 ft 22 kts 353°
2026-04-16 13:44 48.36070 11.79483 1481 ft 9 kts 354°
2026-04-16 13:44 48.36131 11.79473 1480 ft 8 kts 354°
2026-04-16 13:44 48.36194 11.79481 1480 ft 9 kts 31°
2026-04-16 13:45 48.36220 11.79557 1485 ft 8 kts 79°
2026-04-16 13:45 48.36226 11.79634 1479 ft 7 kts 83°
2026-04-16 13:45 48.36232 11.79704 1482 ft 6 kts 83°
2026-04-16 13:45 48.36237 11.79770 1476 ft 6 kts 83°
2026-04-16 13:46 48.36241 11.79835 1480 ft 9 kts 84°
2026-04-16 13:46 48.36250 11.79941 1483 ft 21 kts 82°
2026-04-16 13:46 48.36270 11.80204 1485 ft 27 kts 83°
2026-04-16 13:46 48.36292 11.80492 1478 ft 29 kts 83°
2026-04-16 13:47 48.36316 11.80800 1481 ft 30 kts 83°
2026-04-16 13:47 48.36338 11.81086 1474 ft 27 kts 83°
2026-04-16 13:47 48.36393 11.81201 1479 ft 12 kts 343°
2026-04-16 13:47 48.36441 11.81107 1476 ft 13 kts 297°
2026-04-16 13:48 48.36478 11.80974 1483 ft 15 kts 292°
2026-04-16 13:48 48.36523 11.80819 1481 ft 17 kts 294°
2026-04-16 13:48 48.36572 11.80635 1481 ft 21 kts 274°
2026-04-16 13:48 48.36557 11.80235 1485 ft 71 kts 263°
2026-04-16 13:49 48.36464 11.79146 1475 ft 135 kts 262°
2026-04-16 13:49 48.36328 11.77515 1683 ft 171 kts 264°
2026-04-16 13:49 48.36182 11.75559 1988 ft 207 kts 264°
2026-04-16 13:49 48.36013 11.73222 2430 ft 235 kts 265°
2026-04-16 13:50 48.35833 11.70846 3722 ft 226 kts 264°
2026-04-16 13:50 48.35754 11.68499 4760 ft 227 kts 279°
2026-04-16 13:50 48.36345 11.66230 5409 ft 247 kts 301°
2026-04-16 13:50 48.37276 11.63960 6128 ft 261 kts 302°
2026-04-16 13:51 48.38253 11.61621 7060 ft 267 kts 302°
2026-04-16 13:51 48.39247 11.59239 8018 ft 271 kts 302°
2026-04-16 13:51 48.40249 11.56817 8991 ft 275 kts 302°
2026-04-16 13:51 48.41261 11.54347 9964 ft 279 kts 302°
2026-04-16 13:52 48.42283 11.51836 10854 ft 283 kts 301°
2026-04-16 13:52 48.43316 11.49294 11745 ft 286 kts 301°
2026-04-16 13:52 48.44375 11.46736 12647 ft 290 kts 305°
2026-04-16 13:52 48.45755 11.44504 13517 ft 294 kts 320°
2026-04-16 13:53 48.47527 11.42864 14120 ft 310 kts 332°
2026-04-16 13:53 48.49439 11.41222 14341 ft 332 kts 326°
2026-04-16 13:53 48.51382 11.39192 14780 ft 345 kts 322°
2026-04-16 13:53 48.53318 11.37005 15475 ft 349 kts 321°
2026-04-16 13:54 48.55262 11.34777 16225 ft 352 kts 321°
2026-04-16 13:54 48.57263 11.32519 16980 ft 356 kts 321°
2026-04-16 13:54 48.59268 11.30304 17715 ft 359 kts 322°
2026-04-16 13:54 48.61308 11.28094 18454 ft 363 kts 322°
2026-04-16 13:55 48.63348 11.25912 19076 ft 366 kts 322°
2026-04-16 13:55 48.65435 11.23689 19719 ft 368 kts 322°
2026-04-16 13:55 48.67540 11.21446 20363 ft 371 kts 322°
2026-04-16 13:55 48.69653 11.19186 21048 ft 372 kts 322°
2026-04-16 13:56 48.71735 11.16953 22008 ft 366 kts 322°
2026-04-16 13:56 48.73813 11.14718 22750 ft 366 kts 322°
2026-04-16 13:56 48.75897 11.12475 23421 ft 368 kts 322°
2026-04-16 13:56 48.77990 11.10216 24010 ft 371 kts 322°
2026-04-16 13:57 48.80093 11.07941 24191 ft 371 kts 322°
2026-04-16 13:57 48.82197 11.05669 24248 ft 371 kts 322°
2026-04-16 13:57 48.84299 11.03400 24250 ft 371 kts 322°
2026-04-16 13:58 48.88494 10.98863 24251 ft 370 kts 322°
2026-04-16 13:58 48.90589 10.96590 24251 ft 370 kts 322°
2026-04-16 13:58 48.92681 10.94314 24249 ft 370 kts 322°
2026-04-16 13:58 48.94774 10.92038 24263 ft 370 kts 322°
2026-04-16 13:59 48.96871 10.89759 24263 ft 370 kts 322°
2026-04-16 13:59 48.98965 10.87476 24266 ft 370 kts 322°
2026-04-16 13:59 49.01058 10.85192 24266 ft 370 kts 322°
2026-04-16 13:59 49.03147 10.82910 24266 ft 370 kts 322°
2026-04-16 14:00 49.05238 10.80624 24267 ft 369 kts 322°
2026-04-16 14:00 49.07324 10.78340 24271 ft 369 kts 322°
2026-04-16 14:00 49.09411 10.76054 24277 ft 369 kts 322°
2026-04-16 14:00 49.11493 10.73772 24279 ft 369 kts 322°
2026-04-16 14:01 49.13578 10.71485 24281 ft 369 kts 322°
2026-04-16 14:01 49.15660 10.69196 24276 ft 365 kts 322°
2026-04-16 14:01 49.17676 10.66975 24205 ft 350 kts 322°
2026-04-16 14:01 49.19614 10.64841 24079 ft 337 kts 322°
2026-04-16 14:02 49.21491 10.62777 23768 ft 330 kts 322°
2026-04-16 14:02 49.23341 10.60740 23279 ft 326 kts 322°
2026-04-16 14:02 49.25177 10.58715 22801 ft 324 kts 322°
2026-04-16 14:02 49.26998 10.56703 22374 ft 322 kts 321°
2026-04-16 14:03 49.28806 10.54700 21963 ft 319 kts 321°
2026-04-16 14:03 49.30606 10.52700 21701 ft 320 kts 321°
2026-04-16 14:03 49.32405 10.50699 21448 ft 319 kts 321°
2026-04-16 14:03 49.34199 10.48706 21193 ft 318 kts 321°
2026-04-16 14:04 49.35879 10.46600 20941 ft 315 kts 313°
2026-04-16 14:04 49.37271 10.44033 20673 ft 312 kts 303°
2026-04-16 14:04 49.38508 10.41301 20425 ft 311 kts 303°
2026-04-16 14:04 49.39746 10.38580 20177 ft 311 kts 303°
2026-04-16 14:05 49.40987 10.35870 19932 ft 310 kts 303°
2026-04-16 14:05 49.42226 10.33168 19692 ft 309 kts 303°
2026-04-16 14:05 49.43460 10.30471 19443 ft 308 kts 303°
2026-04-16 14:05 49.44689 10.27775 19207 ft 308 kts 303°
2026-04-16 14:06 49.45914 10.25080 18972 ft 307 kts 303°
2026-04-16 14:06 49.47133 10.22394 18739 ft 306 kts 303°
2026-04-16 14:06 49.48349 10.19708 18499 ft 306 kts 303°
2026-04-16 14:06 49.49562 10.17027 18230 ft 305 kts 303°
2026-04-16 14:07 49.50771 10.14356 17965 ft 304 kts 303°
2026-04-16 14:07 49.51975 10.11695 17691 ft 303 kts 303°
2026-04-16 14:07 49.53178 10.09036 17439 ft 302 kts 303°
2026-04-16 14:07 49.54373 10.06390 17168 ft 300 kts 303°
2026-04-16 14:08 49.55563 10.03751 16921 ft 299 kts 303°
2026-04-16 14:08 49.56735 10.01152 16665 ft 299 kts 303°
2026-04-16 14:08 49.57931 9.98498 16402 ft 298 kts 303°
2026-04-16 14:08 49.59112 9.95880 16230 ft 297 kts 303°
2026-04-16 14:09 49.60291 9.93263 16236 ft 297 kts 303°
2026-04-16 14:09 49.61466 9.90644 16236 ft 297 kts 303°
2026-04-16 14:09 49.62641 9.88024 16236 ft 297 kts 303°
2026-04-16 14:09 49.63814 9.85404 16236 ft 297 kts 303°
2026-04-16 14:10 49.64985 9.82783 16231 ft 297 kts 303°
2026-04-16 14:10 49.66156 9.80160 16231 ft 297 kts 303°
2026-04-16 14:10 49.67327 9.77540 16230 ft 297 kts 303°
2026-04-16 14:10 49.68498 9.74918 16229 ft 297 kts 303°
2026-04-16 14:11 49.69671 9.72289 16225 ft 297 kts 303°
2026-04-16 14:11 49.70840 9.69656 16112 ft 297 kts 303°
2026-04-16 14:11 49.72005 9.67033 15861 ft 296 kts 303°
2026-04-16 14:11 49.73168 9.64415 15610 ft 295 kts 303°
2026-04-16 14:12 49.74324 9.61809 15364 ft 294 kts 303°
2026-04-16 14:12 49.75478 9.59203 15106 ft 293 kts 303°
2026-04-16 14:12 49.76629 9.56606 14741 ft 293 kts 303°
2026-04-16 14:12 49.77780 9.54001 14328 ft 294 kts 303°
2026-04-16 14:13 49.78933 9.51392 13897 ft 294 kts 303°
2026-04-16 14:13 49.80091 9.48774 13444 ft 294 kts 303°
2026-04-16 14:13 49.81243 9.46170 13029 ft 293 kts 303°
2026-04-16 14:13 49.82383 9.43590 12605 ft 286 kts 303°
2026-04-16 14:14 49.83498 9.41059 12198 ft 284 kts 303°
2026-04-16 14:14 49.84607 9.38533 11794 ft 283 kts 303°
2026-04-16 14:14 49.85695 9.36028 11397 ft 284 kts 301°
2026-04-16 14:14 49.86514 9.33284 11205 ft 280 kts 287°
2026-04-16 14:15 49.87064 9.30393 11229 ft 280 kts 286°
2026-04-16 14:15 49.87656 9.27517 11207 ft 281 kts 293°
2026-04-16 14:15 49.88755 9.25026 11219 ft 283 kts 315°
2026-04-16 14:15 49.90419 9.23400 11112 ft 287 kts 339°
2026-04-16 14:16 49.92390 9.22994 10866 ft 290 kts
2026-04-16 14:16 49.94327 9.23867 10626 ft 293 kts 21°
2026-04-16 14:16 49.96199 9.25099 10245 ft 292 kts 21°
2026-04-16 14:16 49.98064 9.26328 9862 ft 291 kts 21°
2026-04-16 14:17 49.99922 9.27549 9449 ft 289 kts 21°
2026-04-16 14:17 50.01769 9.28760 9059 ft 287 kts 21°
2026-04-16 14:17 50.03605 9.29963 8670 ft 285 kts 21°
2026-04-16 14:17 50.05431 9.31159 8249 ft 284 kts 21°
2026-04-16 14:18 50.07248 9.32350 7834 ft 283 kts 21°
2026-04-16 14:18 50.09055 9.33535 7434 ft 281 kts 21°
2026-04-16 14:18 50.10831 9.34784 7044 ft 280 kts 27°
2026-04-16 14:18 50.12404 9.36558 6655 ft 280 kts 41°
2026-04-16 14:19 50.13647 9.38836 6463 ft 271 kts 55°
2026-04-16 14:19 50.14639 9.41182 6323 ft 247 kts 45°
2026-04-16 14:19 50.15958 9.42682 5942 ft 233 kts 21°
2026-04-16 14:19 50.17547 9.43247 5457 ft 236 kts 359°
2026-04-16 14:20 50.19157 9.42932 5084 ft 233 kts 344°
2026-04-16 14:20 50.20686 9.42172 5006 ft 231 kts 331°
2026-04-16 14:20 50.21995 9.40740 5013 ft 230 kts 313°
2026-04-16 14:20 50.22939 9.38748 5013 ft 228 kts 295°
2026-04-16 14:21 50.23429 9.36415 5015 ft 227 kts 278°
2026-04-16 14:21 50.23431 9.33984 5008 ft 219 kts 260°
2026-04-16 14:21 50.23006 9.31773 5009 ft 209 kts 250°
2026-04-16 14:21 50.22508 9.29651 5010 ft 207 kts 250°
2026-04-16 14:22 50.22015 9.27532 5015 ft 207 kts 250°
2026-04-16 14:22 50.21536 9.25464 5008 ft 196 kts 251°
2026-04-16 14:22 50.21089 9.23528 5045 ft 187 kts 250°
2026-04-16 14:22 50.20651 9.21631 5006 ft 184 kts 251°
2026-04-16 14:23 50.20215 9.19746 5006 ft 185 kts 251°
2026-04-16 14:23 50.19776 9.17854 5007 ft 186 kts 251°
2026-04-16 14:23 50.19337 9.15959 5012 ft 186 kts 250°
2026-04-16 14:23 50.18897 9.14061 5013 ft 186 kts 250°
2026-04-16 14:24 50.18457 9.12168 5012 ft 186 kts 250°
2026-04-16 14:24 50.18018 9.10276 5013 ft 186 kts 250°
2026-04-16 14:24 50.17566 9.08388 5008 ft 186 kts 250°
2026-04-16 14:24 50.17116 9.06498 5009 ft 186 kts 250°
2026-04-16 14:25 50.16671 9.04602 5009 ft 186 kts 250°
2026-04-16 14:25 50.16228 9.02708 5012 ft 186 kts 250°
2026-04-16 14:25 50.15786 9.00815 5009 ft 186 kts 250°
2026-04-16 14:25 50.15343 8.98920 5007 ft 186 kts 251°
2026-04-16 14:26 50.14901 8.97028 5006 ft 186 kts 250°
2026-04-16 14:26 50.14457 8.95133 5011 ft 186 kts 250°
2026-04-16 14:26 50.14012 8.93236 5010 ft 186 kts 250°
2026-04-16 14:26 50.13569 8.91346 5003 ft 186 kts 250°
2026-04-16 14:27 50.13125 8.89453 5013 ft 186 kts 250°
2026-04-16 14:27 50.12683 8.87571 5006 ft 181 kts 250°
2026-04-16 14:27 50.12265 8.85797 4904 ft 169 kts 250°
2026-04-16 14:27 50.11867 8.84103 4714 ft 165 kts 250°
2026-04-16 14:28 50.11473 8.82429 4501 ft 164 kts 250°
2026-04-16 14:28 50.11079 8.80759 4271 ft 164 kts 250°
2026-04-16 14:28 50.10685 8.79090 4028 ft 163 kts 250°
2026-04-16 14:28 50.10295 8.77436 3805 ft 162 kts 250°
2026-04-16 14:29 50.09905 8.75783 3571 ft 163 kts 249°
2026-04-16 14:29 50.09513 8.74128 3341 ft 162 kts 250°
2026-04-16 14:29 50.09124 8.72485 3131 ft 160 kts 249°
2026-04-16 14:29 50.08760 8.70945 2890 ft 143 kts 250°
2026-04-16 14:30 50.08429 8.69550 2697 ft 133 kts 250°
2026-04-16 14:30 50.08115 8.68225 2508 ft 129 kts 249°
2026-04-16 14:30 50.07806 8.66921 2326 ft 128 kts 250°
2026-04-16 14:30 50.07498 8.65621 2141 ft 128 kts 248°
2026-04-16 14:31 50.07187 8.64315 1959 ft 129 kts 249°
2026-04-16 14:31 50.06874 8.62998 1774 ft 128 kts 250°
2026-04-16 14:31 50.06566 8.61702 1583 ft 129 kts 251°
2026-04-16 14:31 50.06253 8.60384 1406 ft 130 kts 249°
2026-04-16 14:32 50.06046 8.59515 1281 ft 129 kts 250°
2026-04-16 14:32 50.05732 8.58200 1090 ft 131 kts 251°
2026-04-16 14:32 50.05417 8.56875 918 ft 131 kts 252°
2026-04-16 14:32 50.05099 8.55541 737 ft 133 kts 253°
2026-04-16 14:33 50.04779 8.54197 518 ft 133 kts 255°
2026-04-16 14:33 50.04461 8.52856 364 ft 132 kts 253°
2026-04-16 14:33 50.04204 8.51755 336 ft 69 kts 246°
2026-04-16 14:33 50.04121 8.51437 330 ft 27 kts 251°
2026-04-16 14:34 50.04017 8.51097 328 ft 30 kts 239°
2026-04-16 14:34 50.03890 8.50896 324 ft 25 kts 220°
2026-04-16 14:34 50.03801 8.50846 331 ft 7 kts 152°
2026-04-16 14:34 50.03781 8.50900 334 ft 7 kts 96°
2026-04-16 14:35 50.03807 8.51036 334 ft 20 kts 69°
2026-04-16 14:35 50.03859 8.51249 334 ft 22 kts 70°
2026-04-16 14:35 50.03915 8.51482 333 ft 24 kts 70°
2026-04-16 14:35 50.03975 8.51731 335 ft 25 kts 68°
2026-04-16 14:36 50.04034 8.51975 338 ft 14 kts 71°
2026-04-16 14:36 50.04068 8.52124 336 ft 15 kts 69°
2026-04-16 14:36 50.04105 8.52278 349 ft 15 kts 70°
2026-04-16 14:36 50.04144 8.52438 353 ft 16 kts 69°
2026-04-16 14:37 50.04183 8.52603 358 ft 17 kts 69°
2026-04-16 14:37 50.04225 8.52778 355 ft 18 kts 69°
2026-04-16 14:37 50.04270 8.52961 357 ft 19 kts 69°
2026-04-16 14:37 50.04316 8.53154 362 ft 18 kts 70°
2026-04-16 14:38 50.04356 8.53325 371 ft 15 kts 70°
2026-04-16 14:38 50.04391 8.53488 375 ft 17 kts 78°
2026-04-16 14:38 50.04406 8.53677 375 ft 19 kts 84°
2026-04-16 14:38 50.04421 8.53888 375 ft 21 kts 85°
2026-04-16 14:39 50.04435 8.54112 375 ft 16 kts 84°
2026-04-16 14:39 50.04448 8.54298 375 ft 19 kts 84°
2026-04-16 14:39 50.04450 8.54483 370 ft 17 kts 98°
2026-04-16 14:39 50.04395 8.54669 363 ft 21 kts 129°
2026-04-16 14:40 50.04278 8.54792 358 ft 17 kts 159°
2026-04-16 14:40 50.04160 8.54856 359 ft 19 kts 161°
2026-04-16 14:40 50.04073 8.54908 356 ft 11 kts 159°
2026-04-16 14:40 50.04020 8.54965 356 ft 8 kts 119°
2026-04-16 14:41 50.04029 8.55064 360 ft 13 kts 69°
2026-04-16 14:41 50.04070 8.55232 358 ft 18 kts 70°
2026-04-16 14:41 50.04119 8.55435 354 ft 22 kts 69°
2026-04-16 14:41 50.04173 8.55664 361 ft 23 kts 69°
2026-04-16 14:42 50.04232 8.55906 356 ft 24 kts 70°
2026-04-16 14:42 50.04292 8.56159 358 ft 26 kts 69°
2026-04-16 14:42 50.04356 8.56426 364 ft 27 kts 70°
2026-04-16 14:42 50.04418 8.56686 360 ft 22 kts 70°
2026-04-16 14:43 50.04451 8.56822 361 ft 13 kts 63°
2026-04-16 14:43 50.04534 8.56884 359 ft 11 kts 12°
2026-04-16 14:43 50.04591 8.56863 358 ft 8 kts 279°
2026-04-16 14:43 50.04600 8.56797 365 ft 4 kts 293°
2026-04-16 14:44 50.04606 8.56776 360 ft 0 kts 294°